Orbital Elements at Epoch 2459000.5 (2020-May-31.0) TDB
Reference: JPL 19 (heliocentric ecliptic J2000)
Element | Value | Uncertainty (1-sigma) | Units |
e | .2098242288533106 | 3.1848e-08 | |
a | 2.63017526017484 | 1.7541e-08 | au |
q | 2.078300764459598 | 8.7123e-08 | au |
i | 4.446316399181695 | 6.7286e-06 | deg |
node | 196.6829173023111 | 4.3223e-05 | deg |
peri | 291.6986761813113 | 4.7658e-05 | deg |
M | 230.8629393682846 | 2.1803e-05 | deg |
tp | 2459559.386804182579 (2021-Dec-10.88680418) | 9.85e-05 | TDB |
period | 1558.028721743375 4.27 | 1.5586e-05 4.267e-08 | d yr |
n | .231061208934052 | 2.3115e-09 | deg/d |
Q | 3.182049755890081 | 2.1222e-08 | au |
|
| | Orbit Determination Parameters
Additional Information
|